星链-30324 (STARLINK-30324 )

导读 | 豆包AI

STARLINK-30324是美国太空探索技术公司星链互联网卫星星座的一员,于2023年8月17日发射。它延续星链星座低轨部署设计,依托批量发射组网方案,为全球提供低延迟高速互联网服务,尤其覆盖偏远网络空白区域,进一步扩充星链低轨星座的服务覆盖能力与网络冗余度。

基本信息
目录编号:
57640
目录名称:
STARLINK-30324
国际标识:
2023-122J
轨道中心:
EARTH
卫星名称:
星链-30324
卫星全名:
星链-30324 (STARLINK-30324 )
卫星状态:
在轨 (已飞行987 天)
发射日期:
2023-08-17 UTC
国别 :
美国 (US)
星等 :
--
轨道信息
数据来源 国际轨道数据 AOE轨道数据
星历时间 2026-04-30T11:29:48+0800
12小时前
查看轨道信息
2026-04-25T09:00:00+0800
5天前
查看轨道信息
半长轴 6861.208km 6861.19km
偏心率 0.0001269 0.000053
轨道倾角 43.000° 43.001°
近地点辐角 276.330° 245.527°
升交点赤经 162.149° 190.977°
平近点角 83.740° 93.212°
近地点 482.2km 482.689km
远地点 483.942km 483.417km
周期 94.267分钟 94.267分钟
每日圈数 15.275727 15.275788
详细信息
固有亮度:
5
最大亮度:
0.3
卫星平台:
Starlink v2.0 mini
覆盖范围:
全球
运营商:
太空探索技术公司
运营商所在国:
美国
制造商(研发单位):
太空探索技术公司
制造商所在国:
美国
使用方式:
暂无
卫星简介
星链(Starlink)计划是由太空探索技术公司(SpaceX)提出的一个巨型低轨卫星互联网星座项目,计划在2019年至2024年间在太空搭建由约1.2万颗卫星组成的“星链”网络,其中1584颗将部署在地球上空550千米处的近地轨道,并从2020年开始工作。该卫星仍在工作。
2D轨道图
3D轨道图
轨道高度分析图
轨道倾角分析图
轨道综合分析图
查看轨道综合分析图